station,date_time,water_elev
364133089224401,05/03/2011 12:57,303.7
364133089224401,05/03/2011 12:58,303.69
364133089224401,05/03/2011 12:59,303.69
364133089224401,05/03/2011 13:00,303.7
364133089224401,05/03/2011 13:01,303.7
364133089224401,05/03/2011 13:02,303.72
364133089224401,05/03/2011 13:03,303.72
364133089224401,05/03/2011 13:04,303.72
364133089224401,05/03/2011 13:05,303.74
364133089224401,05/03/2011 13:06,303.74
364133089224401,05/03/2011 13:07,303.75
364133089224401,05/03/2011 13:08,303.75
364133089224401,05/03/2011 13:09,303.76
364133089224401,05/03/2011 13:10,303.76
364133089224401,05/03/2011 13:11,303.77
364133089224401,05/03/2011 13:12,303.77
364133089224401,05/03/2011 13:13,303.78
364133089224401,05/03/2011 13:14,303.79
364133089224401,05/03/2011 13:15,303.79
364133089224401,05/03/2011 13:16,303.8
364133089224401,05/03/2011 13:17,303.8
364133089224401,05/03/2011 13:18,303.8
364133089224401,05/03/2011 13:19,303.81
364133089224401,05/03/2011 13:20,303.82
364133089224401,05/03/2011 13:21,303.83
364133089224401,05/03/2011 13:22,303.83
364133089224401,05/03/2011 13:23,303.83
364133089224401,05/03/2011 13:24,303.84
364133089224401,05/03/2011 13:25,303.84
364133089224401,05/03/2011 13:26,303.84
364133089224401,05/03/2011 13:27,303.85
364133089224401,05/03/2011 13:28,303.86
364133089224401,05/03/2011 13:29,303.88
364133089224401,05/03/2011 13:30,303.89
364133089224401,05/03/2011 13:31,303.89
364133089224401,05/03/2011 13:32,303.89
364133089224401,05/03/2011 13:33,303.9
364133089224401,05/03/2011 13:34,303.91
364133089224401,05/03/2011 13:35,303.91
364133089224401,05/03/2011 13:36,303.91
364133089224401,05/03/2011 13:37,303.92
364133089224401,05/03/2011 13:38,303.92
364133089224401,05/03/2011 13:39,303.93
364133089224401,05/03/2011 13:40,303.94
364133089224401,05/03/2011 13:41,303.94
364133089224401,05/03/2011 13:42,303.96
364133089224401,05/03/2011 13:43,303.96
364133089224401,05/03/2011 13:44,303.95
364133089224401,05/03/2011 13:45,303.96
364133089224401,05/03/2011 13:46,303.97
364133089224401,05/03/2011 13:47,303.98
364133089224401,05/03/2011 13:48,303.98
364133089224401,05/03/2011 13:49,303.98
364133089224401,05/03/2011 13:50,303.99
364133089224401,05/03/2011 13:51,304
364133089224401,05/03/2011 13:52,304.01
364133089224401,05/03/2011 13:53,304.02
364133089224401,05/03/2011 13:54,304.02
364133089224401,05/03/2011 13:55,304.03
364133089224401,05/03/2011 13:56,304.02
364133089224401,05/03/2011 13:57,304.03
364133089224401,05/03/2011 13:58,304.04
364133089224401,05/03/2011 13:59,304.04
364133089224401,05/03/2011 14:00,304.04
364133089224401,05/03/2011 14:01,304.05
364133089224401,05/03/2011 14:02,304.07
364133089224401,05/03/2011 14:03,304.06
364133089224401,05/03/2011 14:04,304.07
364133089224401,05/03/2011 14:05,304.08
364133089224401,05/03/2011 14:06,304.09
364133089224401,05/03/2011 14:07,304.09
364133089224401,05/03/2011 14:08,304.1
364133089224401,05/03/2011 14:09,304.1
364133089224401,05/03/2011 14:10,304.1
364133089224401,05/03/2011 14:11,304.11
364133089224401,05/03/2011 14:12,304.11
364133089224401,05/03/2011 14:13,304.13
364133089224401,05/03/2011 14:14,304.13
364133089224401,05/03/2011 14:15,304.13
364133089224401,05/03/2011 14:16,304.14
364133089224401,05/03/2011 14:17,304.14
364133089224401,05/03/2011 14:18,304.15
364133089224401,05/03/2011 14:19,304.16
364133089224401,05/03/2011 14:20,304.16
364133089224401,05/03/2011 14:21,304.17
364133089224401,05/03/2011 14:22,304.16
364133089224401,05/03/2011 14:23,304.17
364133089224401,05/03/2011 14:24,304.18
364133089224401,05/03/2011 14:25,304.19
364133089224401,05/03/2011 14:26,304.19
364133089224401,05/03/2011 14:27,304.2
364133089224401,05/03/2011 14:28,304.21
364133089224401,05/03/2011 14:29,304.22
364133089224401,05/03/2011 14:30,304.22
364133089224401,05/03/2011 14:31,304.23
364133089224401,05/03/2011 14:32,304.24
364133089224401,05/03/2011 14:33,304.24
364133089224401,05/03/2011 14:34,304.24
364133089224401,05/03/2011 14:35,304.24
364133089224401,05/03/2011 14:36,304.26
364133089224401,05/03/2011 14:37,304.27
364133089224401,05/03/2011 14:38,304.27
364133089224401,05/03/2011 14:39,304.28
364133089224401,05/03/2011 14:40,304.3
364133089224401,05/03/2011 14:41,304.28
364133089224401,05/03/2011 14:42,304.29
364133089224401,05/03/2011 14:43,304.31
364133089224401,05/03/2011 14:44,304.31
364133089224401,05/03/2011 14:45,304.3
364133089224401,05/03/2011 14:46,304.32
364133089224401,05/03/2011 14:47,304.31
364133089224401,05/03/2011 14:48,304.33
364133089224401,05/03/2011 14:49,304.33
364133089224401,05/03/2011 14:50,304.34
364133089224401,05/03/2011 14:51,304.34
364133089224401,05/03/2011 14:52,304.35
364133089224401,05/03/2011 14:53,304.35
364133089224401,05/03/2011 14:54,304.36
364133089224401,05/03/2011 14:55,304.36
364133089224401,05/03/2011 14:56,304.36
364133089224401,05/03/2011 14:57,304.38
364133089224401,05/03/2011 14:58,304.39
364133089224401,05/03/2011 14:59,304.39
364133089224401,05/03/2011 15:00,304.39
364133089224401,05/03/2011 15:01,304.41
364133089224401,05/03/2011 15:02,304.41
364133089224401,05/03/2011 15:03,304.41
364133089224401,05/03/2011 15:04,304.41
364133089224401,05/03/2011 15:05,304.42
364133089224401,05/03/2011 15:06,304.42
364133089224401,05/03/2011 15:07,304.44
364133089224401,05/03/2011 15:08,304.44
364133089224401,05/03/2011 15:09,304.44
364133089224401,05/03/2011 15:10,304.45
364133089224401,05/03/2011 15:11,304.46
364133089224401,05/03/2011 15:12,304.44
364133089224401,05/03/2011 15:13,304.47
364133089224401,05/03/2011 15:14,304.47
364133089224401,05/03/2011 15:15,304.48
364133089224401,05/03/2011 15:16,304.49
364133089224401,05/03/2011 15:17,304.49
364133089224401,05/03/2011 15:18,304.49
364133089224401,05/03/2011 15:19,304.49
364133089224401,05/03/2011 15:20,304.51
364133089224401,05/03/2011 15:21,304.51
364133089224401,05/03/2011 15:22,304.52
364133089224401,05/03/2011 15:23,304.52
364133089224401,05/03/2011 15:24,304.53
364133089224401,05/03/2011 15:25,304.53
364133089224401,05/03/2011 15:26,304.54
364133089224401,05/03/2011 15:27,304.54
364133089224401,05/03/2011 15:28,304.54
364133089224401,05/03/2011 15:29,304.56
364133089224401,05/03/2011 15:30,304.56
364133089224401,05/03/2011 15:31,304.56
364133089224401,05/03/2011 15:32,304.58
364133089224401,05/03/2011 15:33,304.57
364133089224401,05/03/2011 15:34,304.58
364133089224401,05/03/2011 15:35,304.59
364133089224401,05/03/2011 15:36,304.59
364133089224401,05/03/2011 15:37,304.6
364133089224401,05/03/2011 15:38,304.61
364133089224401,05/03/2011 15:39,304.61
364133089224401,05/03/2011 15:40,304.61
364133089224401,05/03/2011 15:41,304.62
364133089224401,05/03/2011 15:42,304.62
364133089224401,05/03/2011 15:43,304.64
364133089224401,05/03/2011 15:44,304.65
364133089224401,05/03/2011 15:45,304.65
364133089224401,05/03/2011 15:46,304.66
364133089224401,05/03/2011 15:47,304.66
364133089224401,05/03/2011 15:48,304.65
364133089224401,05/03/2011 15:49,304.67
364133089224401,05/03/2011 15:50,304.68
364133089224401,05/03/2011 15:51,304.68
364133089224401,05/03/2011 15:52,304.69
364133089224401,05/03/2011 15:53,304.7
364133089224401,05/03/2011 15:54,304.7
364133089224401,05/03/2011 15:55,304.71
364133089224401,05/03/2011 15:56,304.71
364133089224401,05/03/2011 15:57,304.72
364133089224401,05/03/2011 15:58,304.72
364133089224401,05/03/2011 15:59,304.73
364133089224401,05/03/2011 16:00,304.73
364133089224401,05/03/2011 16:01,304.74
364133089224401,05/03/2011 16:02,304.75
364133089224401,05/03/2011 16:03,304.74
364133089224401,05/03/2011 16:04,304.76
364133089224401,05/03/2011 16:05,304.77
364133089224401,05/03/2011 16:06,304.77
364133089224401,05/03/2011 16:07,304.78
364133089224401,05/03/2011 16:08,304.77
364133089224401,05/03/2011 16:09,304.79
364133089224401,05/03/2011 16:10,304.79
364133089224401,05/03/2011 16:11,304.79
364133089224401,05/03/2011 16:12,304.8
364133089224401,05/03/2011 16:13,304.81
364133089224401,05/03/2011 16:14,304.8
364133089224401,05/03/2011 16:15,304.81
364133089224401,05/03/2011 16:16,304.82
364133089224401,05/03/2011 16:17,304.82
364133089224401,05/03/2011 16:18,304.83
364133089224401,05/03/2011 16:19,304.83
364133089224401,05/03/2011 16:20,304.83
364133089224401,05/03/2011 16:21,304.85
364133089224401,05/03/2011 16:22,304.86
364133089224401,05/03/2011 16:23,304.85
364133089224401,05/03/2011 16:24,304.86
364133089224401,05/03/2011 16:25,304.87
364133089224401,05/03/2011 16:26,304.88
364133089224401,05/03/2011 16:27,304.88
364133089224401,05/03/2011 16:28,304.89
364133089224401,05/03/2011 16:29,304.89
364133089224401,05/03/2011 16:30,304.9
364133089224401,05/03/2011 16:31,304.9
364133089224401,05/03/2011 16:32,304.91
364133089224401,05/03/2011 16:33,304.92
364133089224401,05/03/2011 16:34,304.92
364133089224401,05/03/2011 16:35,304.93
364133089224401,05/03/2011 16:36,304.93
364133089224401,05/03/2011 16:37,304.92
364133089224401,05/03/2011 16:38,304.94
364133089224401,05/03/2011 16:39,304.94
364133089224401,05/03/2011 16:40,304.95
364133089224401,05/03/2011 16:41,304.95
364133089224401,05/03/2011 16:42,304.97
364133089224401,05/03/2011 16:43,304.97
364133089224401,05/03/2011 16:44,304.96
364133089224401,05/03/2011 16:45,304.96
364133089224401,05/03/2011 16:46,304.99
364133089224401,05/03/2011 16:47,304.98
364133089224401,05/03/2011 16:48,304.99
364133089224401,05/03/2011 16:49,305
364133089224401,05/03/2011 16:50,305
364133089224401,05/03/2011 16:51,305
364133089224401,05/03/2011 16:52,305.01
364133089224401,05/03/2011 16:53,305.02
364133089224401,05/03/2011 16:54,305.02
364133089224401,05/03/2011 16:55,305.03
364133089224401,05/03/2011 16:56,305.03
364133089224401,05/03/2011 16:57,305.04
364133089224401,05/03/2011 16:58,305.04
364133089224401,05/03/2011 16:59,305.04
364133089224401,05/03/2011 17:00,305.06
364133089224401,05/03/2011 17:01,305.06
364133089224401,05/03/2011 17:02,305.07
364133089224401,05/03/2011 17:03,305.08
364133089224401,05/03/2011 17:04,305.08
364133089224401,05/03/2011 17:05,305.08
364133089224401,05/03/2011 17:06,305.09
364133089224401,05/03/2011 17:07,305.09
364133089224401,05/03/2011 17:08,305.09
364133089224401,05/03/2011 17:09,305.1
364133089224401,05/03/2011 17:10,305.12
364133089224401,05/03/2011 17:11,305.11
364133089224401,05/03/2011 17:12,305.11
364133089224401,05/03/2011 17:13,305.11
364133089224401,05/03/2011 17:14,305.12
364133089224401,05/03/2011 17:15,305.12
364133089224401,05/03/2011 17:16,305.13
364133089224401,05/03/2011 17:17,305.14
364133089224401,05/03/2011 17:18,305.15
364133089224401,05/03/2011 17:19,305.15
364133089224401,05/03/2011 17:20,305.15
364133089224401,05/03/2011 17:21,305.15
364133089224401,05/03/2011 17:22,305.16
364133089224401,05/03/2011 17:23,305.16
364133089224401,05/03/2011 17:24,305.17
364133089224401,05/03/2011 17:25,305.18
364133089224401,05/03/2011 17:26,305.18
364133089224401,05/03/2011 17:27,305.19
364133089224401,05/03/2011 17:28,305.19
364133089224401,05/03/2011 17:29,305.2
364133089224401,05/03/2011 17:30,305.2
364133089224401,05/03/2011 17:31,305.19
364133089224401,05/03/2011 17:32,305.21
364133089224401,05/03/2011 17:33,305.22
364133089224401,05/03/2011 17:34,305.22
364133089224401,05/03/2011 17:35,305.22
364133089224401,05/03/2011 17:36,305.22
364133089224401,05/03/2011 17:37,305.23
364133089224401,05/03/2011 17:38,305.24
364133089224401,05/03/2011 17:39,305.24
364133089224401,05/03/2011 17:40,305.26
364133089224401,05/03/2011 17:41,305.26
364133089224401,05/03/2011 17:42,305.26
364133089224401,05/03/2011 17:43,305.26
364133089224401,05/03/2011 17:44,305.27
364133089224401,05/03/2011 17:45,305.28
364133089224401,05/03/2011 17:46,305.28
364133089224401,05/03/2011 17:47,305.28
364133089224401,05/03/2011 17:48,305.28
364133089224401,05/03/2011 17:49,305.29
364133089224401,05/03/2011 17:50,305.3
364133089224401,05/03/2011 17:51,305.3
364133089224401,05/03/2011 17:52,305.31
364133089224401,05/03/2011 17:53,305.31
364133089224401,05/03/2011 17:54,305.32
364133089224401,05/03/2011 17:55,305.34
364133089224401,05/03/2011 17:56,305.32
364133089224401,05/03/2011 17:57,305.34
364133089224401,05/03/2011 17:58,305.32
364133089224401,05/03/2011 17:59,305.34
364133089224401,05/03/2011 18:00,305.35
364133089224401,05/03/2011 18:01,305.35
364133089224401,05/03/2011 18:02,305.36
364133089224401,05/03/2011 18:03,305.36
364133089224401,05/03/2011 18:04,305.37
364133089224401,05/03/2011 18:05,305.37
364133089224401,05/03/2011 18:06,305.38
364133089224401,05/03/2011 18:07,305.38
364133089224401,05/03/2011 18:08,305.39
364133089224401,05/03/2011 18:09,305.39
364133089224401,05/03/2011 18:10,305.38
364133089224401,05/03/2011 18:11,305.39
364133089224401,05/03/2011 18:12,305.4
364133089224401,05/03/2011 18:13,305.41
364133089224401,05/03/2011 18:14,305.43
364133089224401,05/03/2011 18:15,305.43
364133089224401,05/03/2011 18:16,305.43
364133089224401,05/03/2011 18:17,305.44
364133089224401,05/03/2011 18:18,305.44
364133089224401,05/03/2011 18:19,305.44
364133089224401,05/03/2011 18:20,305.44
364133089224401,05/03/2011 18:21,305.45
364133089224401,05/03/2011 18:22,305.45
364133089224401,05/03/2011 18:23,305.46
364133089224401,05/03/2011 18:24,305.46
364133089224401,05/03/2011 18:25,305.46
364133089224401,05/03/2011 18:26,305.47
364133089224401,05/03/2011 18:27,305.49
364133089224401,05/03/2011 18:28,305.48
364133089224401,05/03/2011 18:29,305.48
364133089224401,05/03/2011 18:30,305.48
364133089224401,05/03/2011 18:31,305.5
364133089224401,05/03/2011 18:32,305.5
364133089224401,05/03/2011 18:33,305.5
364133089224401,05/03/2011 18:34,305.5
364133089224401,05/03/2011 18:35,305.52
364133089224401,05/03/2011 18:36,305.51
364133089224401,05/03/2011 18:37,305.51
364133089224401,05/03/2011 18:38,305.52
364133089224401,05/03/2011 18:39,305.52
364133089224401,05/03/2011 18:40,305.54
364133089224401,05/03/2011 18:41,305.54
364133089224401,05/03/2011 18:42,305.54
364133089224401,05/03/2011 18:43,305.54
364133089224401,05/03/2011 18:44,305.55
364133089224401,05/03/2011 18:45,305.54
364133089224401,05/03/2011 18:46,305.56
364133089224401,05/03/2011 18:47,305.56
364133089224401,05/03/2011 18:48,305.56
364133089224401,05/03/2011 18:49,305.56
364133089224401,05/03/2011 18:50,305.57
364133089224401,05/03/2011 18:51,305.58
364133089224401,05/03/2011 18:52,305.58
364133089224401,05/03/2011 18:53,305.59
364133089224401,05/03/2011 18:54,305.61
364133089224401,05/03/2011 18:55,305.6
364133089224401,05/03/2011 18:56,305.6
364133089224401,05/03/2011 18:57,305.62
364133089224401,05/03/2011 18:58,305.6
364133089224401,05/03/2011 18:59,305.62
364133089224401,05/03/2011 19:00,305.61
364133089224401,05/03/2011 19:01,305.63
364133089224401,05/03/2011 19:02,305.64
364133089224401,05/03/2011 19:03,305.64
364133089224401,05/03/2011 19:04,305.64
364133089224401,05/03/2011 19:05,305.65
364133089224401,05/03/2011 19:06,305.65
364133089224401,05/03/2011 19:07,305.66
364133089224401,05/03/2011 19:08,305.64
364133089224401,05/03/2011 19:09,305.66
364133089224401,05/03/2011 19:10,305.67
364133089224401,05/03/2011 19:11,305.67
364133089224401,05/03/2011 19:12,305.68
364133089224401,05/03/2011 19:13,305.68
364133089224401,05/03/2011 19:14,305.68
364133089224401,05/03/2011 19:15,305.68
364133089224401,05/03/2011 19:16,305.69
364133089224401,05/03/2011 19:17,305.7
364133089224401,05/03/2011 19:18,305.71
364133089224401,05/03/2011 19:19,305.7
364133089224401,05/03/2011 19:20,305.71
364133089224401,05/03/2011 19:21,305.72
364133089224401,05/03/2011 19:22,305.71
364133089224401,05/03/2011 19:23,305.72
364133089224401,05/03/2011 19:24,305.72
364133089224401,05/03/2011 19:25,305.74
364133089224401,05/03/2011 19:26,305.73
364133089224401,05/03/2011 19:27,305.73
364133089224401,05/03/2011 19:28,305.75
364133089224401,05/03/2011 19:29,305.75
364133089224401,05/03/2011 19:30,305.75
364133089224401,05/03/2011 19:31,305.76
364133089224401,05/03/2011 19:32,305.77
364133089224401,05/03/2011 19:33,305.77
364133089224401,05/03/2011 19:34,305.77
364133089224401,05/03/2011 19:35,305.77
364133089224401,05/03/2011 19:36,305.79
364133089224401,05/03/2011 19:37,305.79
364133089224401,05/03/2011 19:38,305.79
364133089224401,05/03/2011 19:39,305.79
364133089224401,05/03/2011 19:40,305.79
364133089224401,05/03/2011 19:41,305.81
364133089224401,05/03/2011 19:42,305.81
364133089224401,05/03/2011 19:43,305.8
364133089224401,05/03/2011 19:44,305.82
364133089224401,05/03/2011 19:45,305.83
364133089224401,05/03/2011 19:46,305.83
364133089224401,05/03/2011 19:47,305.83
364133089224401,05/03/2011 19:48,305.83
364133089224401,05/03/2011 19:49,305.84
364133089224401,05/03/2011 19:50,305.85
364133089224401,05/03/2011 19:51,305.85
364133089224401,05/03/2011 19:52,305.84
364133089224401,05/03/2011 19:53,305.86
364133089224401,05/03/2011 19:54,305.86
364133089224401,05/03/2011 19:55,305.86
364133089224401,05/03/2011 19:56,305.87
364133089224401,05/03/2011 19:57,305.87
364133089224401,05/03/2011 19:58,305.88
364133089224401,05/03/2011 19:59,305.89
364133089224401,05/03/2011 20:00,305.89
364133089224401,05/03/2011 20:01,305.89
364133089224401,05/03/2011 20:02,305.89
364133089224401,05/03/2011 20:03,305.9
364133089224401,05/03/2011 20:04,305.91
364133089224401,05/03/2011 20:05,305.91
364133089224401,05/03/2011 20:06,305.91
364133089224401,05/03/2011 20:07,305.92
364133089224401,05/03/2011 20:08,305.91
364133089224401,05/03/2011 20:09,305.92
364133089224401,05/03/2011 20:10,305.94
364133089224401,05/03/2011 20:11,305.94
364133089224401,05/03/2011 20:12,305.94
364133089224401,05/03/2011 20:13,305.95
364133089224401,05/03/2011 20:14,305.94
364133089224401,05/03/2011 20:15,305.96
364133089224401,05/03/2011 20:16,305.96
364133089224401,05/03/2011 20:17,305.95
364133089224401,05/03/2011 20:18,305.96
364133089224401,05/03/2011 20:19,305.95
364133089224401,05/03/2011 20:20,305.97
364133089224401,05/03/2011 20:21,305.98
364133089224401,05/03/2011 20:22,305.98
364133089224401,05/03/2011 20:23,305.98
364133089224401,05/03/2011 20:24,305.98
364133089224401,05/03/2011 20:25,305.99
364133089224401,05/03/2011 20:26,306
364133089224401,05/03/2011 20:27,306
364133089224401,05/03/2011 20:28,306.01
364133089224401,05/03/2011 20:29,306.01
364133089224401,05/03/2011 20:30,306.02
364133089224401,05/03/2011 20:31,306.02
364133089224401,05/03/2011 20:32,306.02
364133089224401,05/03/2011 20:33,306.03
364133089224401,05/03/2011 20:34,306.03
364133089224401,05/03/2011 20:35,306.04
364133089224401,05/03/2011 20:36,306.04
364133089224401,05/03/2011 20:37,306.04
364133089224401,05/03/2011 20:38,306.05
364133089224401,05/03/2011 20:39,306.06
364133089224401,05/03/2011 20:40,306.06
364133089224401,05/03/2011 20:41,306.06
364133089224401,05/03/2011 20:42,306.06
364133089224401,05/03/2011 20:43,306.07
364133089224401,05/03/2011 20:44,306.07
364133089224401,05/03/2011 20:45,306.08
364133089224401,05/03/2011 20:46,306.08
364133089224401,05/03/2011 20:47,306.08
364133089224401,05/03/2011 20:48,306.08
364133089224401,05/03/2011 20:49,306.09
364133089224401,05/03/2011 20:50,306.09
364133089224401,05/03/2011 20:51,306.1
364133089224401,05/03/2011 20:52,306.11
364133089224401,05/03/2011 20:53,306.12
364133089224401,05/03/2011 20:54,306.12
364133089224401,05/03/2011 20:55,306.12
364133089224401,05/03/2011 20:56,306.12
364133089224401,05/03/2011 20:57,306.13
364133089224401,05/03/2011 20:58,306.13
364133089224401,05/03/2011 20:59,306.14
364133089224401,05/03/2011 21:00,306.14
364133089224401,05/03/2011 21:01,306.14
364133089224401,05/03/2011 21:02,306.15
364133089224401,05/03/2011 21:03,306.15
364133089224401,05/03/2011 21:04,306.16
364133089224401,05/03/2011 21:05,306.16
364133089224401,05/03/2011 21:06,306.16
364133089224401,05/03/2011 21:07,306.16
364133089224401,05/03/2011 21:08,306.17
364133089224401,05/03/2011 21:09,306.17
364133089224401,05/03/2011 21:10,306.17
364133089224401,05/03/2011 21:11,306.18
364133089224401,05/03/2011 21:12,306.19
364133089224401,05/03/2011 21:13,306.18
364133089224401,05/03/2011 21:14,306.19
364133089224401,05/03/2011 21:15,306.2
364133089224401,05/03/2011 21:16,306.19
364133089224401,05/03/2011 21:17,306.21
364133089224401,05/03/2011 21:18,306.21
364133089224401,05/03/2011 21:19,306.21
364133089224401,05/03/2011 21:20,306.22
364133089224401,05/03/2011 21:21,306.22
364133089224401,05/03/2011 21:22,306.22
364133089224401,05/03/2011 21:23,306.22
364133089224401,05/03/2011 21:24,306.22
364133089224401,05/03/2011 21:25,306.24
364133089224401,05/03/2011 21:26,306.24
364133089224401,05/03/2011 21:27,306.24
364133089224401,05/03/2011 21:28,306.25
364133089224401,05/03/2011 21:29,306.26
364133089224401,05/03/2011 21:30,306.25
364133089224401,05/03/2011 21:31,306.24
364133089224401,05/03/2011 21:32,306.26
364133089224401,05/03/2011 21:33,306.26
364133089224401,05/03/2011 21:34,306.26
364133089224401,05/03/2011 21:35,306.27
364133089224401,05/03/2011 21:36,306.26
364133089224401,05/03/2011 21:37,306.27
364133089224401,05/03/2011 21:38,306.29
364133089224401,05/03/2011 21:39,306.29
364133089224401,05/03/2011 21:40,306.29
364133089224401,05/03/2011 21:41,306.29
364133089224401,05/03/2011 21:42,306.3
364133089224401,05/03/2011 21:43,306.29
364133089224401,05/03/2011 21:44,306.29
364133089224401,05/03/2011 21:45,306.3
364133089224401,05/03/2011 21:46,306.32
364133089224401,05/03/2011 21:47,306.31
364133089224401,05/03/2011 21:48,306.32
364133089224401,05/03/2011 21:49,306.32
364133089224401,05/03/2011 21:50,306.33
364133089224401,05/03/2011 21:51,306.33
364133089224401,05/03/2011 21:52,306.34
364133089224401,05/03/2011 21:53,306.35
364133089224401,05/03/2011 21:54,306.34
364133089224401,05/03/2011 21:55,306.34
364133089224401,05/03/2011 21:56,306.35
364133089224401,05/03/2011 21:57,306.36
364133089224401,05/03/2011 21:58,306.35
364133089224401,05/03/2011 21:59,306.36
364133089224401,05/03/2011 22:00,306.36
364133089224401,05/03/2011 22:01,306.37
364133089224401,05/03/2011 22:02,306.37
364133089224401,05/03/2011 22:03,306.37
364133089224401,05/03/2011 22:04,306.38
364133089224401,05/03/2011 22:05,306.38
364133089224401,05/03/2011 22:06,306.4
364133089224401,05/03/2011 22:07,306.4
364133089224401,05/03/2011 22:08,306.39
364133089224401,05/03/2011 22:09,306.4
364133089224401,05/03/2011 22:10,306.4
364133089224401,05/03/2011 22:11,306.41
364133089224401,05/03/2011 22:12,306.41
364133089224401,05/03/2011 22:13,306.42
364133089224401,05/03/2011 22:14,306.41
364133089224401,05/03/2011 22:15,306.42
364133089224401,05/03/2011 22:16,306.43
364133089224401,05/03/2011 22:17,306.43
364133089224401,05/03/2011 22:18,306.43
364133089224401,05/03/2011 22:19,306.44
364133089224401,05/03/2011 22:20,306.44
364133089224401,05/03/2011 22:21,306.44
364133089224401,05/03/2011 22:22,306.44
364133089224401,05/03/2011 22:23,306.44
364133089224401,05/03/2011 22:24,306.45
364133089224401,05/03/2011 22:25,306.46
364133089224401,05/03/2011 22:26,306.46
364133089224401,05/03/2011 22:27,306.48
364133089224401,05/03/2011 22:28,306.46
364133089224401,05/03/2011 22:29,306.46
364133089224401,05/03/2011 22:30,306.47
364133089224401,05/03/2011 22:31,306.49
364133089224401,05/03/2011 22:32,306.48
364133089224401,05/03/2011 22:33,306.5
364133089224401,05/03/2011 22:34,306.49
364133089224401,05/03/2011 22:35,306.5
364133089224401,05/03/2011 22:36,306.49
364133089224401,05/03/2011 22:37,306.49
364133089224401,05/03/2011 22:38,306.5
364133089224401,05/03/2011 22:39,306.5
364133089224401,05/03/2011 22:40,306.5
364133089224401,05/03/2011 22:41,306.52
364133089224401,05/03/2011 22:42,306.52